• In Moldova, Republic
  • List of Countries
  • For 7 days
  • Water Temperature
  • Satellite Maps
  • Weather Map
  • Weather Widgets
  • user-avatar
    Login

    Hourly Weather Mostische

    Today, 23 July, Monday

    Time Temperature Precipitation Wind Pressure Humidity
    00:00 +17°C° 0 mm 3 mps 747 mmHg 95%
    01:00 +17°C° 0 mm 2 mps 747 mmHg 96%
    02:00 +16°C° 0 mm 2 mps 747 mmHg 97%
    03:00 +17°C° 0 mm 2 mps 747 mmHg 97%
    04:00 +17°C° 0 mm 2 mps 747 mmHg 96%
    05:00 +17°C° 0 mm 3 mps 747 mmHg 95%
    06:00 +19°C° 0 mm 3 mps 748 mmHg 90%
    07:00 +20°C° 0 mm 3 mps 748 mmHg 85%
    08:00 +21°C° 0 mm 4 mps 748 mmHg 80%
    09:00 +22°C° 0.2 mm 4 mps 748 mmHg 77%
    10:00 +23°C° 0.2 mm 4 mps 748 mmHg 73%
    11:00 +25°C° 0.2 mm 4 mps 748 mmHg 70%
    12:00 +25°C° 0.4 mm 4 mps 748 mmHg 69%
    13:00 +26°C° 0.4 mm 4 mps 747 mmHg 69%
    14:00 +26°C° 0.4 mm 4 mps 747 mmHg 68%
    15:00 +26°C° 0.1 mm 4 mps 747 mmHg 68%
    16:00 +25°C° 0.1 mm 4 mps 747 mmHg 69%
    17:00 +25°C° 0.1 mm 3 mps 747 mmHg 70%
    18:00 +24°C° 0 mm 3 mps 748 mmHg 74%
    19:00 +21°C° 0 mm 3 mps 748 mmHg 79%
    20:00 +19°C° 0 mm 3 mps 748 mmHg 83%
    21:00 +18°C° 0 mm 3 mps 748 mmHg 87%
    22:00 +17°C° 0 mm 3 mps 748 mmHg 90%
    23:00 +16°C° 0 mm 2 mps 748 mmHg 93%

    Tomorrow, 24 July, Tuesday

    Time Temperature Precipitation Wind Pressure Humidity
    00:00 +15°C° 0 mm 2 mps 748 mmHg 94%
    01:00 +15°C° 0 mm 2 mps 748 mmHg 95%
    02:00 +14°C° 0 mm 2 mps 748 mmHg 96%
    03:00 +14°C° 0 mm 3 mps 748 mmHg 95%
    04:00 +14°C° 0 mm 3 mps 748 mmHg 93%
    05:00 +16°C° 0 mm 3 mps 748 mmHg 92%
    06:00 +16°C° 0 mm 3 mps 748 mmHg 91%
    07:00 +17°C° 0 mm 3 mps 749 mmHg 90%
    08:00 +17°C° 0 mm 3 mps 749 mmHg 89%
    09:00 +17°C° 0.1 mm 3 mps 749 mmHg 89%
    10:00 +17°C° 0.1 mm 3 mps 749 mmHg 89%
    11:00 +18°C° 0.1 mm 3 mps 749 mmHg 89%
    12:00 +18°C° 0 mm 3 mps 749 mmHg 87%
    13:00 +19°C° 0 mm 3 mps 749 mmHg 86%
    14:00 +20°C° 0 mm 3 mps 749 mmHg 84%
    15:00 +20°C° 0 mm 3 mps 749 mmHg 85%
    16:00 +20°C° 0 mm 3 mps 749 mmHg 86%
    17:00 +20°C° 0 mm 3 mps 749 mmHg 87%
    18:00 +20°C° 0 mm 2 mps 749 mmHg 89%
    19:00 +19°C° 0 mm 2 mps 749 mmHg 92%
    20:00 +19°C° 0 mm 2 mps 749 mmHg 94%
    21:00 +18°C° 0 mm 2 mps 749 mmHg 95%
    22:00 +18°C° 0 mm 2 mps 749 mmHg 96%
    23:00 +18°C° 0 mm 2 mps 749 mmHg 97%

    Day after tomorrow, 25 July, Wednesday

    Time Temperature Precipitation Wind Pressure Humidity
    00:00 +18°C° 0 mm 2 mps 749 mmHg 97%
    01:00 +18°C° 0 mm 2 mps 749 mmHg 97%
    02:00 +18°C° 0 mm 2 mps 749 mmHg 97%
    03:00 +18°C° 0 mm 2 mps 750 mmHg 97%
    04:00 +18°C° 0 mm 2 mps 750 mmHg 96%
    05:00 +18°C° 0 mm 3 mps 750 mmHg 95%
    06:00 +19°C° 0 mm 3 mps 750 mmHg 91%
    07:00 +20°C° 0 mm 3 mps 750 mmHg 88%
    08:00 +21°C° 0 mm 4 mps 751 mmHg 85%
    09:00 +22°C° 0 mm 4 mps 751 mmHg 81%
    10:00 +23°C° 0 mm 4 mps 751 mmHg 77%
    11:00 +25°C° 0 mm 4 mps 751 mmHg 73%
    12:00 +26°C° 0.2 mm 4 mps 751 mmHg 67%
    13:00 +27°C° 0.2 mm 4 mps 751 mmHg 62%
    14:00 +28°C° 0.2 mm 4 mps 751 mmHg 56%
    15:00 +27°C° 0 mm 4 mps 751 mmHg 58%
    16:00 +26°C° 0 mm 4 mps 751 mmHg 60%
    17:00 +25°C° 0 mm 4 mps 751 mmHg 61%
    18:00 +23°C° 0 mm 4 mps 751 mmHg 65%
    19:00 +21°C° 0 mm 4 mps 751 mmHg 69%
    20:00 +19°C° 0 mm 3 mps 752 mmHg 73%
    21:00 +18°C° 0 mm 3 mps 752 mmHg 77%
    22:00 +18°C° 0 mm 3 mps 752 mmHg 80%
    23:00 +17°C° 0 mm 2 mps 752 mmHg 84%

    26 July, Thursday

    Time Temperature Precipitation Wind Pressure Humidity
    00:00 +17°C° 0 mm 2 mps 752 mmHg 85%
    01:00 +17°C° 0 mm 2 mps 752 mmHg 86%
    02:00 +17°C° 0 mm 2 mps 752 mmHg 87%
    03:00 +17°C° 0.1 mm 2 mps 752 mmHg 89%
    04:00 +17°C° 0.1 mm 2 mps 752 mmHg 92%
    05:00 +18°C° 0.1 mm 3 mps 752 mmHg 94%
    06:00 +18°C° 0.1 mm 3 mps 752 mmHg 92%
    07:00 +19°C° 0.1 mm 3 mps 752 mmHg 90%
    08:00 +20°C° 0.1 mm 3 mps 752 mmHg 88%
    09:00 +21°C° 0 mm 3 mps 752 mmHg 84%
    10:00 +24°C° 0 mm 3 mps 752 mmHg 80%
    11:00 +25°C° 0 mm 3 mps 752 mmHg 75%
    12:00 +25°C° 0.1 mm 3 mps 752 mmHg 74%
    13:00 +26°C° 0.1 mm 3 mps 752 mmHg 73%
    14:00 +26°C° 0.1 mm 3 mps 752 mmHg 72%
    15:00 +26°C° 0.1 mm 3 mps 752 mmHg 72%
    16:00 +27°C° 0.1 mm 2 mps 752 mmHg 73%
    17:00 +27°C° 0.1 mm 2 mps 752 mmHg 73%
    18:00 +26°C° 0.2 mm 2 mps 752 mmHg 76%
    19:00 +24°C° 0.2 mm 2 mps 752 mmHg 79%
    20:00 +23°C° 0.2 mm 2 mps 752 mmHg 83%
    21:00 +21°C° 0.1 mm 2 mps 752 mmHg 82%
    22:00 +22°C° 0.1 mm 1 mps 752 mmHg 81%
    23:00 +21°C° 0.1 mm 1 mps 752 mmHg 81%

    27 July, Friday

    Time Temperature Precipitation Wind Pressure Humidity
    00:00 +20°C° 0.1 mm 1 mps 752 mmHg 84%
    01:00 +20°C° 0.1 mm 1 mps 752 mmHg 87%
    02:00 +18°C° 0.1 mm 2 mps 752 mmHg 91%
    03:00 +18°C° 0.1 mm 2 mps 752 mmHg 91%
    04:00 +20°C° 0.1 mm 1 mps 752 mmHg 92%
    05:00 +20°C° 0.1 mm 1 mps 752 mmHg 93%
    06:00 +21°C° 0 mm 1 mps 752 mmHg 90%
    07:00 +23°C° 0 mm 1 mps 752 mmHg 86%
    08:00 +24°C° 0 mm 1 mps 752 mmHg 82%
    09:00 +26°C° 0.6 mm 1 mps 752 mmHg 78%
    10:00 +27°C° 0.6 mm 1 mps 752 mmHg 74%
    11:00 +28°C° 0.6 mm 2 mps 752 mmHg 69%
    12:00 +29°C° 0.3 mm 1 mps 752 mmHg 66%
    13:00 +29°C° 0.3 mm 1 mps 751 mmHg 63%
    14:00 +30°C° 0.3 mm 1 mps 751 mmHg 60%
    15:00 +30°C° 0.5 mm 1 mps 751 mmHg 63%
    16:00 +29°C° 0.5 mm 1 mps 751 mmHg 66%
    17:00 +29°C° 0.5 mm 1 mps 751 mmHg 70%
    18:00 +27°C° 0.9 mm 1 mps 751 mmHg 75%
    19:00 +25°C° 0.9 mm 1 mps 751 mmHg 81%
    20:00 +21°C° 0.9 mm 0 mps 751 mmHg 86%
    21:00 +21°C° 0.1 mm 0 mps 751 mmHg 87%
    22:00 +20°C° 0.1 mm 0 mps 751 mmHg 88%
    23:00 +20°C° 0.1 mm 0 mps 751 mmHg 89%

    28 July, Saturday

    Time Temperature Precipitation Wind Pressure Humidity
    00:00 +20°C° 0.5 mm 0 mps 751 mmHg 90%
    01:00 +21°C° 0.5 mm 1 mps 751 mmHg 91%
    02:00 +21°C° 0.5 mm 1 mps 751 mmHg 93%
    03:00 +21°C° 0.2 mm 1 mps 751 mmHg 93%
    04:00 +21°C° 0.2 mm 1 mps 751 mmHg 94%
    05:00 +21°C° 0.2 mm 1 mps 751 mmHg 94%
    06:00 +22°C° 0.2 mm 1 mps 751 mmHg 92%
    07:00 +23°C° 0.2 mm 1 mps 751 mmHg 90%
    08:00 +24°C° 0.2 mm 1 mps 751 mmHg 89%
    09:00 +25°C° 0.6 mm 2 mps 751 mmHg 85%
    10:00 +25°C° 0.6 mm 3 mps 751 mmHg 82%
    11:00 +26°C° 0.6 mm 3 mps 751 mmHg 79%
    12:00 +26°C° 1.3 mm 3 mps 751 mmHg 81%
    13:00 +26°C° 1.3 mm 3 mps 751 mmHg 82%
    14:00 +25°C° 1.3 mm 3 mps 752 mmHg 84%
    15:00 +25°C° 0.5 mm 3 mps 752 mmHg 86%
    16:00 +23°C° 0.5 mm 4 mps 752 mmHg 88%
    17:00 +22°C° 0.5 mm 4 mps 752 mmHg 89%
    18:00 +22°C° 0.3 mm 4 mps 752 mmHg 90%
    19:00 +21°C° 0.3 mm 4 mps 752 mmHg 91%
    20:00 +20°C° 0.3 mm 4 mps 753 mmHg 92%
    21:00 +19°C° 0.1 mm 5 mps 753 mmHg 92%
    22:00 +19°C° 0.1 mm 5 mps 753 mmHg 92%
    23:00 +17°C° 0.1 mm 5 mps 753 mmHg 91%
    Show more